Météo par heure à Al Khubar

Ce jour, 24 Octobre, Samedi

Heure Température Précipitation Vent Pression Humidité
00:00 +23°C° 0 mm 0 m/s 757 mmHg 73%
01:00 +25°C° 0 mm 1 m/s 757 mmHg 74%
02:00 +24°C° 0 mm 1 m/s 757 mmHg 75%
03:00 +24°C° 0 mm 1 m/s 757 mmHg 76%
04:00 +24°C° 0 mm 2 m/s 757 mmHg 75%
05:00 +24°C° 0 mm 2 m/s 757 mmHg 75%
06:00 +24°C° 0 mm 2 m/s 758 mmHg 74%
07:00 +26°C° 0 mm 2 m/s 758 mmHg 66%
08:00 +27°C° 0 mm 2 m/s 758 mmHg 58%
09:00 +29°C° 0 mm 2 m/s 759 mmHg 49%
10:00 +31°C° 0 mm 2 m/s 758 mmHg 43%
11:00 +32°C° 0 mm 2 m/s 758 mmHg 36%
12:00 +35°C° 0 mm 2 m/s 758 mmHg 30%
13:00 +35°C° 0 mm 3 m/s 758 mmHg 31%
14:00 +34°C° 0 mm 3 m/s 757 mmHg 33%
15:00 +34°C° 0 mm 4 m/s 757 mmHg 35%
16:00 +32°C° 0 mm 4 m/s 758 mmHg 45%
17:00 +30°C° 0 mm 4 m/s 758 mmHg 54%
18:00 +28°C° 0 mm 4 m/s 758 mmHg 64%
19:00 +28°C° 0 mm 4 m/s 758 mmHg 66%
20:00 +28°C° 0 mm 3 m/s 759 mmHg 67%
21:00 +27°C° 0 mm 3 m/s 759 mmHg 69%
22:00 +27°C° 0 mm 2 m/s 759 mmHg 70%
23:00 +26°C° 0 mm 1 m/s 758 mmHg 71%

Demain, 25 Octobre, Dimanche

Heure Température Précipitation Vent Pression Humidité
00:00 +25°C° 0 mm 1 m/s 758 mmHg 72%
01:00 +23°C° 0 mm 0 m/s 758 mmHg 73%
02:00 +22°C° 0 mm 0 m/s 758 mmHg 74%
03:00 +22°C° 0 mm 0 m/s 758 mmHg 75%
04:00 +22°C° 0 mm 0 m/s 758 mmHg 76%
05:00 +21°C° 0 mm 0 m/s 759 mmHg 76%
06:00 +23°C° 0 mm 1 m/s 759 mmHg 77%
07:00 +26°C° 0 mm 1 m/s 759 mmHg 68%
08:00 +28°C° 0 mm 1 m/s 760 mmHg 58%
09:00 +30°C° 0 mm 1 m/s 760 mmHg 49%
10:00 +31°C° 0 mm 1 m/s 759 mmHg 42%
11:00 +34°C° 0 mm 2 m/s 759 mmHg 36%
12:00 +35°C° 0 mm 2 m/s 759 mmHg 29%
13:00 +34°C° 0 mm 2 m/s 758 mmHg 33%
14:00 +34°C° 0 mm 3 m/s 758 mmHg 36%
15:00 +34°C° 0 mm 4 m/s 757 mmHg 39%
16:00 +32°C° 0 mm 4 m/s 758 mmHg 46%
17:00 +30°C° 0 mm 4 m/s 758 mmHg 52%
18:00 +29°C° 0 mm 4 m/s 758 mmHg 58%
19:00 +28°C° 0 mm 4 m/s 758 mmHg 58%
20:00 +28°C° 0 mm 3 m/s 758 mmHg 59%
21:00 +28°C° 0 mm 3 m/s 759 mmHg 59%
22:00 +27°C° 0 mm 3 m/s 759 mmHg 62%
23:00 +26°C° 0 mm 2 m/s 758 mmHg 65%

Après-demain, 26 Octobre, Lundi

Heure Température Précipitation Vent Pression Humidité
00:00 +26°C° 0 mm 2 m/s 758 mmHg 68%
01:00 +25°C° 0 mm 1 m/s 758 mmHg 69%
02:00 +25°C° 0 mm 1 m/s 758 mmHg 70%
03:00 +22°C° 0 mm 0 m/s 758 mmHg 71%
04:00 +24°C° 0 mm 1 m/s 758 mmHg 72%
05:00 +24°C° 0 mm 1 m/s 759 mmHg 73%
06:00 +24°C° 0 mm 1 m/s 759 mmHg 73%
07:00 +26°C° 0 mm 2 m/s 759 mmHg 64%
08:00 +28°C° 0 mm 2 m/s 760 mmHg 55%
09:00 +30°C° 0 mm 2 m/s 760 mmHg 46%
10:00 +31°C° 0 mm 2 m/s 760 mmHg 39%
11:00 +34°C° 0 mm 2 m/s 759 mmHg 31%
12:00 +35°C° 0 mm 3 m/s 759 mmHg 24%
13:00 +35°C° 0 mm 4 m/s 758 mmHg 28%
14:00 +34°C° 0 mm 4 m/s 758 mmHg 33%
15:00 +34°C° 0 mm 5 m/s 758 mmHg 37%
16:00 +32°C° 0 mm 5 m/s 758 mmHg 45%
17:00 +30°C° 0 mm 4 m/s 758 mmHg 54%
18:00 +28°C° 0 mm 4 m/s 758 mmHg 62%
19:00 +28°C° 0 mm 4 m/s 759 mmHg 64%
20:00 +27°C° 0 mm 3 m/s 759 mmHg 67%
21:00 +26°C° 0 mm 3 m/s 759 mmHg 69%
22:00 +26°C° 0 mm 2 m/s 759 mmHg 70%
23:00 +25°C° 0 mm 2 m/s 758 mmHg 71%

, 27 Octobre, Mardi

Heure Température Précipitation Vent Pression Humidité
00:00 +24°C° 0 mm 1 m/s 758 mmHg 72%
01:00 +24°C° 0 mm 1 m/s 758 mmHg 72%
02:00 +24°C° 0 mm 1 m/s 758 mmHg 72%
03:00 +24°C° 0 mm 2 m/s 757 mmHg 72%
04:00 +24°C° 0 mm 2 m/s 758 mmHg 70%
05:00 +24°C° 0 mm 3 m/s 758 mmHg 68%
06:00 +23°C° 0 mm 4 m/s 758 mmHg 66%
07:00 +25°C° 0 mm 4 m/s 758 mmHg 56%
08:00 +27°C° 0 mm 4 m/s 759 mmHg 46%
09:00 +29°C° 0 mm 4 m/s 759 mmHg 37%
10:00 +31°C° 0 mm 3 m/s 759 mmHg 31%
11:00 +34°C° 0 mm 3 m/s 758 mmHg 26%
12:00 +35°C° 0 mm 3 m/s 758 mmHg 21%
13:00 +35°C° 0 mm 4 m/s 758 mmHg 24%
14:00 +35°C° 0 mm 4 m/s 757 mmHg 27%
15:00 +34°C° 0 mm 5 m/s 757 mmHg 30%
16:00 +32°C° 0 mm 4 m/s 757 mmHg 38%
17:00 +30°C° 0 mm 4 m/s 758 mmHg 46%
18:00 +28°C° 0 mm 4 m/s 758 mmHg 54%
19:00 +27°C° 0 mm 3 m/s 758 mmHg 58%
20:00 +26°C° 0 mm 2 m/s 758 mmHg 63%
21:00 +25°C° 0 mm 2 m/s 758 mmHg 67%
22:00 +25°C° 0 mm 1 m/s 758 mmHg 67%
23:00 +25°C° 0 mm 1 m/s 758 mmHg 66%

27 Octobre, Mardi

Heure Température Précipitation Vent Pression Humidité
00:00 +24°C° 0 mm 1 m/s 758 mmHg 72%
01:00 +24°C° 0 mm 1 m/s 758 mmHg 72%
02:00 +24°C° 0 mm 1 m/s 758 mmHg 72%
03:00 +24°C° 0 mm 2 m/s 757 mmHg 72%
04:00 +24°C° 0 mm 2 m/s 758 mmHg 70%
05:00 +24°C° 0 mm 3 m/s 758 mmHg 68%
06:00 +23°C° 0 mm 4 m/s 758 mmHg 66%
07:00 +25°C° 0 mm 4 m/s 758 mmHg 56%
08:00 +27°C° 0 mm 4 m/s 759 mmHg 46%
09:00 +29°C° 0 mm 4 m/s 759 mmHg 37%
10:00 +31°C° 0 mm 3 m/s 759 mmHg 31%
11:00 +34°C° 0 mm 3 m/s 758 mmHg 26%
12:00 +35°C° 0 mm 3 m/s 758 mmHg 21%
13:00 +35°C° 0 mm 4 m/s 758 mmHg 24%
14:00 +35°C° 0 mm 4 m/s 757 mmHg 27%
15:00 +34°C° 0 mm 5 m/s 757 mmHg 30%
16:00 +32°C° 0 mm 4 m/s 757 mmHg 38%
17:00 +30°C° 0 mm 4 m/s 758 mmHg 46%
18:00 +28°C° 0 mm 4 m/s 758 mmHg 54%
19:00 +27°C° 0 mm 3 m/s 758 mmHg 58%
20:00 +26°C° 0 mm 2 m/s 758 mmHg 63%
21:00 +25°C° 0 mm 2 m/s 758 mmHg 67%
22:00 +25°C° 0 mm 1 m/s 758 mmHg 67%
23:00 +25°C° 0 mm 1 m/s 758 mmHg 66%

28 Octobre, Mercredi

Heure Température Précipitation Vent Pression Humidité
00:00 +25°C° 0 mm 1 m/s 758 mmHg 66%
01:00 +24°C° 0 mm 1 m/s 757 mmHg 63%
02:00 +24°C° 0 mm 2 m/s 757 mmHg 61%
03:00 +24°C° 0 mm 3 m/s 757 mmHg 59%
04:00 +24°C° 0 mm 3 m/s 758 mmHg 54%
05:00 +24°C° 0 mm 3 m/s 758 mmHg 49%
06:00 +24°C° 0 mm 3 m/s 758 mmHg 44%
07:00 +25°C° 0 mm 3 m/s 759 mmHg 38%
08:00 +27°C° 0 mm 3 m/s 759 mmHg 32%
09:00 +29°C° 0 mm 3 m/s 760 mmHg 26%
10:00 +31°C° 0 mm 3 m/s 759 mmHg 23%
11:00 +34°C° 0 mm 2 m/s 759 mmHg 20%
12:00 +35°C° 0 mm 2 m/s 758 mmHg 17%
13:00 +35°C° 0 mm 3 m/s 758 mmHg 19%
14:00 +35°C° 0 mm 3 m/s 758 mmHg 21%
15:00 +34°C° 0 mm 3 m/s 757 mmHg 23%
16:00 +31°C° 0 mm 3 m/s 758 mmHg 32%
17:00 +29°C° 0 mm 3 m/s 758 mmHg 40%
18:00 +27°C° 0 mm 3 m/s 758 mmHg 48%
19:00 +26°C° 0 mm 2 m/s 758 mmHg 54%
20:00 +26°C° 0 mm 2 m/s 759 mmHg 60%
21:00 +25°C° 0 mm 1 m/s 759 mmHg 65%
22:00 +24°C° 0 mm 1 m/s 759 mmHg 66%
23:00 +24°C° 0 mm 1 m/s 759 mmHg 66%

29 Octobre, Jeudi

Heure Température Précipitation Vent Pression Humidité
00:00 +22°C° 0 mm 0 m/s 759 mmHg 66%
01:00 +21°C° 0 mm 0 m/s 759 mmHg 66%
02:00 +23°C° 0 mm 1 m/s 758 mmHg 66%
03:00 +23°C° 0 mm 1 m/s 758 mmHg 66%
04:00 +23°C° 0 mm 2 m/s 759 mmHg 62%
05:00 +23°C° 0 mm 2 m/s 759 mmHg 57%
06:00 +22°C° 0 mm 3 m/s 759 mmHg 53%
07:00 +25°C° 0 mm 3 m/s 759 mmHg 47%
08:00 +27°C° 0 mm 3 m/s 760 mmHg 41%
09:00 +29°C° 0 mm 3 m/s 760 mmHg 34%
10:00 +30°C° 0 mm 3 m/s 760 mmHg 31%
11:00 +33°C° 0 mm 3 m/s 760 mmHg 28%
12:00 +34°C° 0 mm 2 m/s 759 mmHg 25%
13:00 +34°C° 0 mm 3 m/s 759 mmHg 28%
14:00 +33°C° 0 mm 3 m/s 759 mmHg 32%
15:00 +33°C° 0 mm 3 m/s 758 mmHg 35%
16:00 +31°C° 0 mm 3 m/s 759 mmHg 43%
17:00 +29°C° 0 mm 2 m/s 759 mmHg 51%
18:00 +27°C° 0 mm 2 m/s 759 mmHg 58%
19:00 +27°C° 0 mm 2 m/s 759 mmHg 60%
20:00 +26°C° 0 mm 2 m/s 760 mmHg 61%
21:00 +26°C° 0 mm 1 m/s 760 mmHg 63%
22:00 +25°C° 0 mm 1 m/s 760 mmHg 64%
23:00 +25°C° 0 mm 1 m/s 760 mmHg 66%
Voir plus

Nous avons besoin de votre consentement

Meteoprog et ses fournisseurs de services peuvent stocker et accéder à des données personnelles telles que des cookies, des identifiants d'appareils ou d'autres technologies similaires sur votre appareil et traiter ces données pour personnaliser le contenu et les publicités, ainsi que pour fournir des fonctionnalités de médias sociaux et analyser le trafic.

  • Stocker et/ou accéder à des informations sur votre appareil

    Des cookies, des identifiants d'appareils ou d'autres informations peuvent être stockés ou accessibles sur votre appareil aux fins indiquées ci-dessus.

  • Annonces et contenus personnalisés, mesure des annonces et des contenus, connaissance de l'audience et développement de produits

    Les annonces et le contenu peuvent être personnalisés en fonction d'un profil. D'autres données peuvent être ajoutées pour mieux personnaliser les annonces et le contenu. Les performances des publicités et du contenu peuvent être mesurées. Il est possible d'obtenir des informations sur le public qui a vu les publicités et le contenu. Ces données peuvent être utilisées pour développer ou améliorer l'expérience de l'utilisateur, les systèmes et les logiciels.

En cliquant sur "J'accepte", vous autorisez l'utilisation de cookies, des identifiants d'appareils, des balises web ou d'autres technologies similaires. Vos paramètres peuvent être modifiés dans le navigateur de votre appareil.

Dans certains cas, des intérêts légitimes peuvent être invoqués plutôt qu'un consentement. Vous pouvez en savoir plus à ce sujet dans notre Politique de confidentialité et de cookies.